Previsão horária em Almargem do Bispo

Hoje, 25 Janeiro, Segunda-feira

Tempo Temperatura Precipitação Vento Pressão Humidade
00:00 +14°C° 0.1 mm 7 m/s 751 mmHg 93%
01:00 +14°C° 0.1 mm 7 m/s 750 mmHg 93%
02:00 +14°C° 0.1 mm 7 m/s 750 mmHg 93%
03:00 +14°C° 0.1 mm 7 m/s 750 mmHg 93%
04:00 +14°C° 0.1 mm 7 m/s 750 mmHg 94%
05:00 +14°C° 0.1 mm 6 m/s 750 mmHg 94%
06:00 +11°C° 0 mm 3 m/s 751 mmHg 91%
07:00 +11°C° 0 mm 4 m/s 752 mmHg 91%
08:00 +12°C° 0 mm 4 m/s 752 mmHg 92%
09:00 +12°C° 0.1 mm 4 m/s 752 mmHg 91%
10:00 +13°C° 0.1 mm 3 m/s 753 mmHg 91%
11:00 +14°C° 0.1 mm 3 m/s 753 mmHg 90%
12:00 +16°C° 0.1 mm 3 m/s 753 mmHg 88%
13:00 +15°C° 0.1 mm 4 m/s 752 mmHg 85%
14:00 +17°C° 0.1 mm 4 m/s 752 mmHg 82%
15:00 +15°C° 0.1 mm 4 m/s 753 mmHg 86%
16:00 +14°C° 0.1 mm 4 m/s 753 mmHg 90%
17:00 +14°C° 0.1 mm 4 m/s 753 mmHg 95%
18:00 +13°C° 0 mm 3 m/s 754 mmHg 95%
19:00 +13°C° 0 mm 3 m/s 754 mmHg 95%
20:00 +12°C° 0 mm 3 m/s 755 mmHg 96%
21:00 +12°C° 0 mm 3 m/s 755 mmHg 95%
22:00 +13°C° 0 mm 2 m/s 755 mmHg 94%
23:00 +13°C° 0 mm 2 m/s 756 mmHg 94%

Amanhã, 26 Janeiro, Terça-feira

Tempo Temperatura Precipitação Vento Pressão Humidade
00:00 +13°C° 0 mm 2 m/s 756 mmHg 93%
01:00 +13°C° 0 mm 2 m/s 756 mmHg 92%
02:00 +14°C° 0 mm 2 m/s 756 mmHg 91%
03:00 +14°C° 0 mm 2 m/s 756 mmHg 91%
04:00 +14°C° 0 mm 2 m/s 756 mmHg 91%
05:00 +13°C° 0 mm 3 m/s 756 mmHg 91%
06:00 +13°C° 0 mm 3 m/s 756 mmHg 92%
07:00 +14°C° 0 mm 3 m/s 757 mmHg 93%
08:00 +14°C° 0 mm 3 m/s 757 mmHg 94%
09:00 +16°C° 0 mm 3 m/s 758 mmHg 92%
10:00 +17°C° 0 mm 3 m/s 758 mmHg 90%
11:00 +18°C° 0 mm 4 m/s 758 mmHg 88%
12:00 +18°C° 0 mm 4 m/s 758 mmHg 86%
13:00 +18°C° 0 mm 4 m/s 758 mmHg 85%
14:00 +18°C° 0 mm 4 m/s 757 mmHg 84%
15:00 +17°C° 0 mm 3 m/s 758 mmHg 87%
16:00 +16°C° 0 mm 3 m/s 758 mmHg 90%
17:00 +16°C° 0 mm 3 m/s 758 mmHg 93%
18:00 +14°C° 0 mm 3 m/s 758 mmHg 94%
19:00 +15°C° 0 mm 2 m/s 759 mmHg 95%
20:00 +14°C° 0 mm 2 m/s 759 mmHg 96%
21:00 +14°C° 0 mm 2 m/s 759 mmHg 96%
22:00 +14°C° 0 mm 2 m/s 759 mmHg 96%
23:00 +14°C° 0 mm 2 m/s 759 mmHg 97%

Depois de amanhã, 27 Janeiro, Quarta-feira

Tempo Temperatura Precipitação Vento Pressão Humidade
00:00 +14°C° 0 mm 1 m/s 759 mmHg 97%
01:00 +14°C° 0 mm 1 m/s 758 mmHg 97%
02:00 +15°C° 0 mm 1 m/s 758 mmHg 97%
03:00 +14°C° 0 mm 1 m/s 758 mmHg 97%
04:00 +14°C° 0 mm 1 m/s 758 mmHg 97%
05:00 +14°C° 0 mm 1 m/s 758 mmHg 98%
06:00 +15°C° 0 mm 1 m/s 758 mmHg 97%
07:00 +15°C° 0 mm 1 m/s 758 mmHg 96%
08:00 +14°C° 0 mm 0 m/s 759 mmHg 95%
09:00 +16°C° 0 mm 1 m/s 759 mmHg 92%
10:00 +16°C° 0 mm 1 m/s 759 mmHg 89%
11:00 +18°C° 0 mm 1 m/s 759 mmHg 86%
12:00 +18°C° 0 mm 1 m/s 759 mmHg 84%
13:00 +18°C° 0 mm 2 m/s 758 mmHg 83%
14:00 +18°C° 0 mm 2 m/s 758 mmHg 81%
15:00 +17°C° 0 mm 2 m/s 758 mmHg 85%
16:00 +16°C° 0 mm 2 m/s 758 mmHg 88%
17:00 +15°C° 0 mm 2 m/s 758 mmHg 92%
18:00 +15°C° 0 mm 2 m/s 759 mmHg 93%
19:00 +14°C° 0 mm 1 m/s 759 mmHg 94%
20:00 +14°C° 0 mm 1 m/s 759 mmHg 95%
21:00 +13°C° 0 mm 1 m/s 759 mmHg 95%
22:00 +13°C° 0 mm 1 m/s 759 mmHg 95%
23:00 +13°C° 0 mm 1 m/s 759 mmHg 95%

28 Janeiro, Quinta-feira

Tempo Temperatura Precipitação Vento Pressão Humidade
00:00 +13°C° 0 mm 1 m/s 759 mmHg 95%
01:00 +13°C° 0 mm 1 m/s 759 mmHg 96%
02:00 +13°C° 0 mm 1 m/s 759 mmHg 96%
03:00 +13°C° 0 mm 1 m/s 759 mmHg 96%
04:00 +13°C° 0 mm 1 m/s 759 mmHg 96%
05:00 +13°C° 0 mm 1 m/s 758 mmHg 96%
06:00 +13°C° 0 mm 1 m/s 759 mmHg 96%
07:00 +13°C° 0 mm 1 m/s 759 mmHg 95%
08:00 +14°C° 0 mm 1 m/s 759 mmHg 95%
09:00 +15°C° 0 mm 1 m/s 759 mmHg 89%
10:00 +18°C° 0 mm 1 m/s 760 mmHg 83%
11:00 +19°C° 0 mm 1 m/s 760 mmHg 77%
12:00 +20°C° 0 mm 1 m/s 759 mmHg 75%
13:00 +20°C° 0 mm 1 m/s 759 mmHg 73%
14:00 +20°C° 0 mm 1 m/s 758 mmHg 71%
15:00 +19°C° 0 mm 1 m/s 758 mmHg 76%
16:00 +18°C° 0 mm 1 m/s 758 mmHg 82%
17:00 +15°C° 0 mm 1 m/s 758 mmHg 87%

29 Janeiro, Sexta-feira

Tempo Temperatura Precipitação Vento Pressão Humidade

30 Janeiro, Sábado

Tempo Temperatura Precipitação Vento Pressão Humidade
Mostrar mais

Necessitamos do seu Consentimento

A Meteoprog e os seus Fornecedores de Serviços podem armazenar e aceder a dados pessoais como cookies, identificadores do dispositivo ou outras tecnologias semelhantes existentes no seu dispositivo e processar estes dados para personalizar conteúdos e anúncios, assim como funcionalidades nas redes sociais e análise de tráfego.

  • Armazenar e/ou aceder a informações no seu dispositivo

    Os cookies, identificadores do dispositivo ou outras informações podem ser armazenados ou acedidos no seu dispositivo, para os fins acima indicados.

  • Anúncios e conteúdos personalizados, medição de anúncios e conteúdos, dados sobre o público-alvo e desenvolvimento de produtos

    Os anúncios e os conteúdos podem ser personalizados com base num perfil. Podem ser adicionados dados adicionais para uma maior personalização dos anúncios e dos conteúdos. A eficácia dos anúncios e dos conteúdos pode ser medida. Podem ser obtidas informações sobre o público que visualizou os anúncios e os conteúdos. Estes dados podem ser usados para desenvolver ou melhorar sistemas, softwares ou a experiência do utilizador.

Ao clicar em "Eu concordo”, permitirá o uso de cookies, identificadores do dispositivo e web beacons mencionados ou outras tecnologias semelhantes. As configurações do navegador do seu dispositivo podem ser alteradas.

Para certos fins, podem ser invocados interesses legítimos ao invés de consentimento. Pode ler mais informação sobre este assunto na nossa Política de Privacidade e Cookies.